Hourly Data Report for September 13, 2017

All times are specified in Local Standard Time (LST). Add 1 hour to adjust for Daylight Saving Time where and when it is observed.

SUMMERSIDE
PRINCE EDWARD ISLAND

46°26'28.000" N
63°50'17.000" W
12.20 m
8300596
71702
WSD

Download Data

Hourly Data (September 2017)
Hourly Data Report for September 13, 2017
Temp Definition
°C
Dew Point Temp Definition
°C
Rel Hum Definition
%
Wind Dir Definition
10's deg

Wind Spd Definition
km/h
Visibility Definition
km
Stn Press Definition
kPa
Hmdx Definition


Wind Chill Definition


Weather Definition


TIME
00:00 13.2 10.3 83 17 4   100.36     LegendNANA
01:00 12.4 10.8 90 25 5   100.35     LegendNANA
02:00 10.4 9.2 92 1 4   100.35     LegendNANA
03:00 10.0 9.0 93 32 2   100.36     LegendNANA
04:00 8.9 7.9 94 32 3   100.36     LegendNANA
05:00 9.8 9.1 96 3 4   100.35     LegendNANA
06:00 9.3 8.8 97 27 2   100.41     LegendNANA
07:00 12.8 12.2 96 23 3   100.46     LegendNANA
08:00 15.4 13.7 90 28 13   100.49     LegendNANA
09:00 18.1 13.8 76 25 12   100.48     LegendNANA
10:00 20.0 13.8 68 26 15   100.47     LegendNANA
11:00 20.9 13.7 63 28 15   100.46     LegendNANA
12:00 21.9 13.6 60 27 16   100.44 25   LegendNANA
13:00 23.2 13.3 54 28 17   100.40 26   LegendNANA
14:00 24.2 13.8 52 24 18   100.37 27   LegendNANA
15:00 25.1 10.9 41 27 21   100.35 27   LegendNANA
16:00 25.1 12.0 44 24 13   100.35 27   LegendNANA
17:00 24.1 13.1 50 23 10   100.34 27   LegendNANA
18:00 20.1 13.3 65 20 12   100.35     LegendNANA
19:00 18.0 14.3 79 20 14   100.40     LegendNANA
20:00 17.8 15.1 84 21 17   100.44     LegendNANA
21:00 18.0 14.6 81 23 18   100.44     LegendNANA
22:00 17.7 14.2 80 22 20   100.45     LegendNANA
23:00 17.2 14.4 83 22 19   100.44     LegendNANA

Notes on Data Quality.

Legend

  • E = Estimated
  • M = Missing
  • NA = Not Available
  • ‡ = Partner data that is not subject to review by the National Climate Archives
Date modified: